Meteo Giornale » Osservazioni meteo Romania » Iasi
ore: 16:30 - Osservazioni Meteo Iasi
Lat. 47° 10' N Lon. 27° 38' E Alt. 102 metri s.l.m.
26 °C
Sereno
Temp. 24 Ore
18 °C
31 °C
Nord-Ovest
20.3 Km/h
Dew point 15 °C
Umidità 50 %
Visibilità 10 Km
Il sole sorge alle ore 06:28
Il sole tramonta alle ore 19:50
| Data e Ora | Cielo e Fenomeni | T °C | DP °C | Um. % | Pres. hPa | Vis. km | Vento km/h | |
|---|---|---|---|---|---|---|---|---|
| Oggi h: 16:30 | Sereno | 26 | 15 | 50 | 1017 | 10 | NO 20.3 | |
| Oggi h: 16:00 | Sereno | 24 | 14 | 53 | 1017 | 10 | O/NO 18.5 | |
| Oggi h: 15:30 | Sereno | 25 | 14 | 50 | 1017 | 10 | NO 13 | |
| Oggi h: 15:00 | Sereno | 26 | 14 | 47 | 1017 | 10 | O 14.8 | |
| Oggi h: 14:30 | Sereno | 26 | 14 | 47 | 1016 | 10 | O 9.3 | |
| Oggi h: 14:00 | Sereno | 26 | 13 | 44 | 1016 | 10 | O 11.1 | |
| Oggi h: 13:30 | Sereno | 26 | 12 | 41 | 1016 | 10 | O 11.1 | |
| Oggi h: 13:00 | Sereno | 27 | 12 | 39 | 1016 | 10 | SO 11.1 | |
| Oggi h: 12:30 | Sereno | 26 | 11 | 39 | 1016 | 10 | S/SO 7.4 | |
| Oggi h: 12:00 | Sereno | 26 | 11 | 39 | 1016 | 10 | S 7.4 | |
| Oggi h: 11:30 | Sereno | 26 | 10 | 36 | 1016 | 10 | S 13 | |
| Oggi h: 11:00 | Sereno | 24 | 11 | 43 | 1016 | 10 | E/SE 14.8 | |
| Oggi h: 10:30 | Sereno | 24 | 10 | 41 | 1016 | 10 | SE 9.3 | |
| Oggi h: 10:00 | Sereno | 23 | 10 | 43 | 1016 | 10 | E/SE 9.3 | |
| Oggi h: 09:30 | Sereno | 22 | 10 | 46 | 1015 | 10 | SE 11.1 | |
| Oggi h: 09:00 | Sereno | 21 | 10 | 49 | 1015 | 10 | E/SE 16.7 | |
| Oggi h: 08:30 | Sereno | 20 | 10 | 52 | 1015 | 10 | E/SE 14.8 | |
| Oggi h: 08:00 | Sereno | 20 | 9 | 49 | 1015 | 10 | E/SE 16.7 | |
| Oggi h: 07:30 | Sereno | 19 | 9 | 52 | 1015 | 10 | E 13 | |
| Oggi h: 07:00 | Sereno | 19 | 9 | 52 | 1015 | 10 | E 16.7 | |
| Oggi h: 06:30 | Sereno | 18 | 9 | 55 | 1015 | 10 | E/SE 16.7 | |
| Oggi h: 06:00 | Sereno | 18 | 9 | 55 | 1015 | 10 | E 13 | |
| Oggi h: 05:30 | Sereno | 19 | 9 | 52 | 1015 | 10 | E 14.8 | |
| Oggi h: 05:00 | Sereno | 19 | 8 | 48 | 1015 | 10 | E 13 | |
| Oggi h: 04:30 | Sereno | 19 | 8 | 48 | 1015 | 10 | E 14.8 | |
| Oggi h: 04:00 | Sereno | 20 | 8 | 45 | 1015 | 10 | E 16.7 | |
| Oggi h: 03:30 | Sereno | 21 | 8 | 43 | 1016 | 10 | E/SE 14.8 | |
| Oggi h: 03:00 | Sereno | 21 | 8 | 43 | 1016 | 10 | E/SE 13 | |
| Oggi h: 02:30 | Sereno | 22 | 8 | 40 | 1016 | 10 | SE 13 | |
| Oggi h: 02:00 | Sereno | 24 | 8 | 35 | 1016 | 10 | S 13 | |
| Oggi h: 01:30 | Sereno | 24 | 9 | 38 | 1016 | 10 | S/SE 13 | |
| Oggi h: 01:00 | Sereno | 24 | 9 | 38 | 1017 | 10 | S 16.7 | |
| Oggi h: 00:30 | Sereno | 24 | 9 | 38 | 1017 | 10 | S/SE 13 | |
| Oggi h: 00:00 | Sereno | 24 | 10 | 41 | 1017 | 10 | S/SE 13 | |
| Ieri h: 23:30 | Sereno | 24 | 10 | 41 | 1016 | 10 | S/SE 9.3 | |
| Ieri h: 23:00 | Sereno | 24 | 9 | 38 | 1016 | 10 | S/SE 14.8 | |
| Ieri h: 22:30 | Sereno | 26 | 9 | 34 | 1016 | 10 | E/SE 11.1 | |
| Ieri h: 22:00 | Sereno | 25 | 9 | 36 | 1016 | 10 | E/SE 7.4 | |
| Ieri h: 21:30 | Sereno | 26 | 9 | 34 | 1016 | 10 | E/SE 9.3 | |
| Ieri h: 21:00 | Sereno | 26 | 9 | 34 | 1016 | 10 | SE 7.4 | |
| Ieri h: 20:30 | Sereno | 27 | 9 | 32 | 1015 | 10 | S/SE 14.8 | |
| Ieri h: 20:00 | Sereno | 27 | 10 | 34 | 1015 | 10 | SE 13 | |
| Ieri h: 19:30 | Sereno | 28 | 10 | 32 | 1015 | 10 | S/SE 14.8 | |
| Ieri h: 19:00 | Sereno | 29 | 10 | 30 | 1015 | 10 | S/SE 14.8 | |
| Ieri h: 18:30 | Sereno | 30 | 10 | 28 | 1015 | 10 | S/SE 14.8 | |
| Ieri h: 18:00 | Sereno | 31 | 10 | 27 | 1015 | 10 | S/SE 16.7 | |



